utcTime,localTime,pm25,nowcast
2022-09-09 15:00:00 +0000,2022-09-09 09:00:00 -0600,7.9,NA
2022-09-09 16:00:00 +0000,2022-09-09 10:00:00 -0600,8.8,8.3
2022-09-09 17:00:00 +0000,2022-09-09 11:00:00 -0600,6.2,7.4
2022-09-09 18:00:00 +0000,2022-09-09 12:00:00 -0600,7.5,7.4
2022-09-09 19:00:00 +0000,2022-09-09 13:00:00 -0600,6.1,6.9
2022-09-09 20:00:00 +0000,2022-09-09 14:00:00 -0600,15.2,11
2022-09-09 21:00:00 +0000,2022-09-09 15:00:00 -0600,14.9,12.9
2022-09-09 22:00:00 +0000,2022-09-09 16:00:00 -0600,12.5,12.7
2022-09-09 23:00:00 +0000,2022-09-09 17:00:00 -0600,8.1,10.4
2022-09-10 00:00:00 +0000,2022-09-09 18:00:00 -0600,9.3,9.8
2022-09-10 01:00:00 +0000,2022-09-09 19:00:00 -0600,5.4,7.6
2022-09-10 02:00:00 +0000,2022-09-09 20:00:00 -0600,1,4.3
2022-09-10 03:00:00 +0000,2022-09-09 21:00:00 -0600,1.8,3
2022-09-10 04:00:00 +0000,2022-09-09 22:00:00 -0600,8.8,5.9
2022-09-10 05:00:00 +0000,2022-09-09 23:00:00 -0600,5.9,5.9
2022-09-10 06:00:00 +0000,2022-09-10 00:00:00 -0600,3.5,4.7
2022-09-10 07:00:00 +0000,2022-09-10 01:00:00 -0600,4.4,4.5
2022-09-10 08:00:00 +0000,2022-09-10 02:00:00 -0600,3.5,4
2022-09-10 09:00:00 +0000,2022-09-10 03:00:00 -0600,2.7,3.3
2022-09-10 10:00:00 +0000,2022-09-10 04:00:00 -0600,4.4,3.8
2022-09-10 11:00:00 +0000,2022-09-10 05:00:00 -0600,4.7,4.2
2022-09-10 12:00:00 +0000,2022-09-10 06:00:00 -0600,4.5,4.3
2022-09-10 13:00:00 +0000,2022-09-10 07:00:00 -0600,5.4,4.8
2022-09-10 14:00:00 +0000,2022-09-10 08:00:00 -0600,5.2,5
2022-09-10 15:00:00 +0000,2022-09-10 09:00:00 -0600,6.4,5.7
2022-09-10 16:00:00 +0000,2022-09-10 10:00:00 -0600,12.2,8.9
2022-09-10 17:00:00 +0000,2022-09-10 11:00:00 -0600,7.3,8.1
2022-09-10 18:00:00 +0000,2022-09-10 12:00:00 -0600,3.2,5.6
2022-09-10 19:00:00 +0000,2022-09-10 13:00:00 -0600,4.7,5.1
2022-09-10 20:00:00 +0000,2022-09-10 14:00:00 -0600,3,4
2022-09-10 21:00:00 +0000,2022-09-10 15:00:00 -0600,1,2.5
2022-09-10 22:00:00 +0000,2022-09-10 16:00:00 -0600,6.7,4.6
2022-09-10 23:00:00 +0000,2022-09-10 17:00:00 -0600,7.6,6.1
2022-09-11 00:00:00 +0000,2022-09-10 18:00:00 -0600,8.1,7.1
2022-09-11 01:00:00 +0000,2022-09-10 19:00:00 -0600,8.3,7.7
2022-09-11 02:00:00 +0000,2022-09-10 20:00:00 -0600,10.1,8.9
2022-09-11 03:00:00 +0000,2022-09-10 21:00:00 -0600,9.8,9.3
2022-09-11 04:00:00 +0000,2022-09-10 22:00:00 -0600,9.1,9.2
2022-09-11 05:00:00 +0000,2022-09-10 23:00:00 -0600,6.6,7.9
2022-09-11 06:00:00 +0000,2022-09-11 00:00:00 -0600,8.4,8.1
2022-09-11 07:00:00 +0000,2022-09-11 01:00:00 -0600,7.4,7.7
2022-09-11 08:00:00 +0000,2022-09-11 02:00:00 -0600,8.6,8.1
2022-09-11 09:00:00 +0000,2022-09-11 03:00:00 -0600,4.2,6.1
2022-09-11 10:00:00 +0000,2022-09-11 04:00:00 -0600,1.8,3.9
2022-09-11 11:00:00 +0000,2022-09-11 05:00:00 -0600,4.9,4.4
2022-09-11 12:00:00 +0000,2022-09-11 06:00:00 -0600,6.1,5.2
2022-09-11 13:00:00 +0000,2022-09-11 07:00:00 -0600,2.3,3.7
2022-09-11 14:00:00 +0000,2022-09-11 08:00:00 -0600,1.3,2.5
2022-09-11 15:00:00 +0000,2022-09-11 09:00:00 -0600,7.3,4.9
2022-09-11 16:00:00 +0000,2022-09-11 10:00:00 -0600,10.3,7.6
2022-09-11 17:00:00 +0000,2022-09-11 11:00:00 -0600,7.6,7.6
2022-09-11 18:00:00 +0000,2022-09-11 12:00:00 -0600,8.3,7.9
2022-09-11 19:00:00 +0000,2022-09-11 13:00:00 -0600,4.2,6
2022-09-11 20:00:00 +0000,2022-09-11 14:00:00 -0600,1.5,3.7
2022-09-11 21:00:00 +0000,2022-09-11 15:00:00 -0600,2.7,3.2
2022-09-11 22:00:00 +0000,2022-09-11 16:00:00 -0600,2.7,2.9
2022-09-11 23:00:00 +0000,2022-09-11 17:00:00 -0600,3.7,3.3
2022-09-12 00:00:00 +0000,2022-09-11 18:00:00 -0600,3.5,3.4
2022-09-12 01:00:00 +0000,2022-09-11 19:00:00 -0600,4.4,3.9
2022-09-12 02:00:00 +0000,2022-09-11 20:00:00 -0600,3.9,3.9
2022-09-12 03:00:00 +0000,2022-09-11 21:00:00 -0600,10.1,7
2022-09-12 04:00:00 +0000,2022-09-11 22:00:00 -0600,8.1,7.5
2022-09-12 05:00:00 +0000,2022-09-11 23:00:00 -0600,6.1,6.8
2022-09-12 06:00:00 +0000,2022-09-12 00:00:00 -0600,6.1,6.4
2022-09-12 07:00:00 +0000,2022-09-12 01:00:00 -0600,5.2,5.8
2022-09-12 08:00:00 +0000,2022-09-12 02:00:00 -0600,4.7,5.2
2022-09-12 09:00:00 +0000,2022-09-12 03:00:00 -0600,4.2,4.7
2022-09-12 10:00:00 +0000,2022-09-12 04:00:00 -0600,2,3.3
2022-09-12 11:00:00 +0000,2022-09-12 05:00:00 -0600,3.7,3.5
2022-09-12 12:00:00 +0000,2022-09-12 06:00:00 -0600,29.8,16.6
2022-09-12 13:00:00 +0000,2022-09-12 07:00:00 -0600,9.8,13.2
2022-09-12 14:00:00 +0000,2022-09-12 08:00:00 -0600,NA,NA
2022-09-12 15:00:00 +0000,2022-09-12 09:00:00 -0600,NA,NA
2022-09-12 16:00:00 +0000,2022-09-12 10:00:00 -0600,20.9,NA
2022-09-12 17:00:00 +0000,2022-09-12 11:00:00 -0600,7.4,12
2022-09-12 18:00:00 +0000,2022-09-12 12:00:00 -0600,5.6,8.4
2022-09-12 19:00:00 +0000,2022-09-12 13:00:00 -0600,5.4,6.8
2022-09-12 20:00:00 +0000,2022-09-12 14:00:00 -0600,4.7,5.7
2022-09-12 21:00:00 +0000,2022-09-12 15:00:00 -0600,10.5,8.1
2022-09-12 22:00:00 +0000,2022-09-12 16:00:00 -0600,17.4,12.8
2022-09-12 23:00:00 +0000,2022-09-12 17:00:00 -0600,70.4,41.6
2022-09-13 00:00:00 +0000,2022-09-12 18:00:00 -0600,57.2,49.4
2022-09-13 01:00:00 +0000,2022-09-12 19:00:00 -0600,40.9,45.1
2022-09-13 02:00:00 +0000,2022-09-12 20:00:00 -0600,42.1,43.6
2022-09-13 03:00:00 +0000,2022-09-12 21:00:00 -0600,36.8,40.2
2022-09-13 04:00:00 +0000,2022-09-12 22:00:00 -0600,33.6,36.9
2022-09-13 05:00:00 +0000,2022-09-12 23:00:00 -0600,41.6,39.2
2022-09-13 06:00:00 +0000,2022-09-13 00:00:00 -0600,42.4,40.8
2022-09-13 07:00:00 +0000,2022-09-13 01:00:00 -0600,42.9,41.8
2022-09-13 08:00:00 +0000,2022-09-13 02:00:00 -0600,43.4,42.6
2022-09-13 09:00:00 +0000,2022-09-13 03:00:00 -0600,41.2,41.9
2022-09-13 10:00:00 +0000,2022-09-13 04:00:00 -0600,40.9,41.4
2022-09-13 11:00:00 +0000,2022-09-13 05:00:00 -0600,42.9,42
2022-09-13 12:00:00 +0000,2022-09-13 06:00:00 -0600,41.4,41.5
2022-09-13 13:00:00 +0000,2022-09-13 07:00:00 -0600,46.1,42.8
2022-09-13 14:00:00 +0000,2022-09-13 08:00:00 -0600,43.6,43
2022-09-13 15:00:00 +0000,2022-09-13 09:00:00 -0600,58.9,50.1
2022-09-13 16:00:00 +0000,2022-09-13 10:00:00 -0600,46.6,47.6
2022-09-13 17:00:00 +0000,2022-09-13 11:00:00 -0600,37.8,44.4
2022-09-13 18:00:00 +0000,2022-09-13 12:00:00 -0600,33.6,39.5
2022-09-13 19:00:00 +0000,2022-09-13 13:00:00 -0600,31.7,35.6
2022-09-13 20:00:00 +0000,2022-09-13 14:00:00 -0600,28.8,31.9
2022-09-13 21:00:00 +0000,2022-09-13 15:00:00 -0600,33.9,32.9
2022-09-13 22:00:00 +0000,2022-09-13 16:00:00 -0600,30.7,31.8
2022-09-13 23:00:00 +0000,2022-09-13 17:00:00 -0600,32.2,32
2022-09-14 00:00:00 +0000,2022-09-13 18:00:00 -0600,25.7,28.8
2022-09-14 01:00:00 +0000,2022-09-13 19:00:00 -0600,32.9,30.8
2022-09-14 02:00:00 +0000,2022-09-13 20:00:00 -0600,33.9,32.3
2022-09-14 03:00:00 +0000,2022-09-13 21:00:00 -0600,39.9,35.6
2022-09-14 04:00:00 +0000,2022-09-13 22:00:00 -0600,38.5,36.1
2022-09-14 05:00:00 +0000,2022-09-13 23:00:00 -0600,33.6,35.2
2022-09-14 06:00:00 +0000,2022-09-14 00:00:00 -0600,31.2,33.7
2022-09-14 07:00:00 +0000,2022-09-14 01:00:00 -0600,33.9,33.8
2022-09-14 08:00:00 +0000,2022-09-14 02:00:00 -0600,26.6,31.2
2022-09-14 09:00:00 +0000,2022-09-14 03:00:00 -0600,28.8,30.3
2022-09-14 10:00:00 +0000,2022-09-14 04:00:00 -0600,33.4,31.4
2022-09-14 11:00:00 +0000,2022-09-14 05:00:00 -0600,27.3,29.9
2022-09-14 12:00:00 +0000,2022-09-14 06:00:00 -0600,26.4,28.8
2022-09-14 13:00:00 +0000,2022-09-14 07:00:00 -0600,31.5,29.7
2022-09-14 14:00:00 +0000,2022-09-14 08:00:00 -0600,42.1,34.3
2022-09-14 15:00:00 +0000,2022-09-14 09:00:00 -0600,27.6,31.7
2022-09-14 16:00:00 +0000,2022-09-14 10:00:00 -0600,30.7,31.3
2022-09-14 17:00:00 +0000,2022-09-14 11:00:00 -0600,18.6,24.9
2022-09-14 18:00:00 +0000,2022-09-14 12:00:00 -0600,13.4,19.1
2022-09-14 19:00:00 +0000,2022-09-14 13:00:00 -0600,10.5,14.8
2022-09-14 20:00:00 +0000,2022-09-14 14:00:00 -0600,10.8,12.8
2022-09-14 21:00:00 +0000,2022-09-14 15:00:00 -0600,11.5,12.1
2022-09-14 22:00:00 +0000,2022-09-14 16:00:00 -0600,11.5,11.8
2022-09-14 23:00:00 +0000,2022-09-14 17:00:00 -0600,12,11.9
2022-09-15 00:00:00 +0000,2022-09-14 18:00:00 -0600,18.4,15.1
2022-09-15 01:00:00 +0000,2022-09-14 19:00:00 -0600,16.7,15.9
2022-09-15 02:00:00 +0000,2022-09-14 20:00:00 -0600,15.1,15.5
2022-09-15 03:00:00 +0000,2022-09-14 21:00:00 -0600,13.9,14.7
2022-09-15 04:00:00 +0000,2022-09-14 22:00:00 -0600,11,13.1
2022-09-15 05:00:00 +0000,2022-09-14 23:00:00 -0600,13.2,13.1
2022-09-15 06:00:00 +0000,2022-09-15 00:00:00 -0600,16.7,14.6
2022-09-15 07:00:00 +0000,2022-09-15 01:00:00 -0600,9.8,12.4
2022-09-15 08:00:00 +0000,2022-09-15 02:00:00 -0600,22.3,17.3
2022-09-15 09:00:00 +0000,2022-09-15 03:00:00 -0600,19.1,18.2
2022-09-15 10:00:00 +0000,2022-09-15 04:00:00 -0600,15.1,16.6
2022-09-15 11:00:00 +0000,2022-09-15 05:00:00 -0600,19.1,17.8
2022-09-15 12:00:00 +0000,2022-09-15 06:00:00 -0600,14.4,16.1
2022-09-15 13:00:00 +0000,2022-09-15 07:00:00 -0600,17.9,17
2022-09-15 14:00:00 +0000,2022-09-15 08:00:00 -0600,17.2,17.1
2022-09-15 15:00:00 +0000,2022-09-15 09:00:00 -0600,16.6,16.8
2022-09-15 16:00:00 +0000,2022-09-15 10:00:00 -0600,17.6,17.2
2022-09-15 17:00:00 +0000,2022-09-15 11:00:00 -0600,19.9,18.5
2022-09-15 18:00:00 +0000,2022-09-15 12:00:00 -0600,20.8,19.6
2022-09-15 19:00:00 +0000,2022-09-15 13:00:00 -0600,27.1,23
2022-09-15 20:00:00 +0000,2022-09-15 14:00:00 -0600,27.6,25.3
2022-09-15 21:00:00 +0000,2022-09-15 15:00:00 -0600,25.4,25.3
2022-09-15 22:00:00 +0000,2022-09-15 16:00:00 -0600,26.6,25.9
2022-09-15 23:00:00 +0000,2022-09-15 17:00:00 -0600,23,24.5
2022-09-16 00:00:00 +0000,2022-09-15 18:00:00 -0600,25.7,25
2022-09-16 01:00:00 +0000,2022-09-15 19:00:00 -0600,24.3,24.7
2022-09-16 02:00:00 +0000,2022-09-15 20:00:00 -0600,17.7,21.9
2022-09-16 03:00:00 +0000,2022-09-15 21:00:00 -0600,10.8,16
2022-09-16 04:00:00 +0000,2022-09-15 22:00:00 -0600,10.8,13.3
2022-09-16 05:00:00 +0000,2022-09-15 23:00:00 -0600,8.6,10.9
2022-09-16 06:00:00 +0000,2022-09-16 00:00:00 -0600,14.9,12.9
2022-09-16 07:00:00 +0000,2022-09-16 01:00:00 -0600,10.5,11.7
2022-09-16 08:00:00 +0000,2022-09-16 02:00:00 -0600,8.8,10.2
2022-09-16 09:00:00 +0000,2022-09-16 03:00:00 -0600,8.8,9.5
2022-09-16 10:00:00 +0000,2022-09-16 04:00:00 -0600,6.4,7.9
2022-09-16 11:00:00 +0000,2022-09-16 05:00:00 -0600,7.3,7.6
2022-09-16 12:00:00 +0000,2022-09-16 06:00:00 -0600,11,9.3
2022-09-16 13:00:00 +0000,2022-09-16 07:00:00 -0600,8.8,9
2022-09-16 14:00:00 +0000,2022-09-16 08:00:00 -0600,16.9,12.9
2022-09-16 15:00:00 +0000,2022-09-16 09:00:00 -0600,12.9,12.9
2022-09-16 16:00:00 +0000,2022-09-16 10:00:00 -0600,11,11.9
2022-09-16 17:00:00 +0000,2022-09-16 11:00:00 -0600,8.8,10.3
2022-09-16 18:00:00 +0000,2022-09-16 12:00:00 -0600,10.7,10.5
2022-09-16 19:00:00 +0000,2022-09-16 13:00:00 -0600,11.5,11
2022-09-16 20:00:00 +0000,2022-09-16 14:00:00 -0600,9.3,10.1
2022-09-16 21:00:00 +0000,2022-09-16 15:00:00 -0600,12.4,11.2
2022-09-16 22:00:00 +0000,2022-09-16 16:00:00 -0600,8.8,10
2022-09-16 23:00:00 +0000,2022-09-16 17:00:00 -0600,15.6,12.7
2022-09-17 00:00:00 +0000,2022-09-16 18:00:00 -0600,12.9,12.8
2022-09-17 01:00:00 +0000,2022-09-16 19:00:00 -0600,21.3,17
2022-09-17 02:00:00 +0000,2022-09-16 20:00:00 -0600,7.3,12.1
2022-09-17 03:00:00 +0000,2022-09-16 21:00:00 -0600,7.1,9.6
2022-09-17 04:00:00 +0000,2022-09-16 22:00:00 -0600,4.4,7
2022-09-17 05:00:00 +0000,2022-09-16 23:00:00 -0600,5.9,6.4
2022-09-17 06:00:00 +0000,2022-09-17 00:00:00 -0600,3.7,5
2022-09-17 07:00:00 +0000,2022-09-17 01:00:00 -0600,6.1,5.5
2022-09-17 08:00:00 +0000,2022-09-17 02:00:00 -0600,6.4,5.9
2022-09-17 09:00:00 +0000,2022-09-17 03:00:00 -0600,6.1,6
2022-09-17 10:00:00 +0000,2022-09-17 04:00:00 -0600,4.7,5.3
2022-09-17 11:00:00 +0000,2022-09-17 05:00:00 -0600,3.7,4.5
2022-09-17 12:00:00 +0000,2022-09-17 06:00:00 -0600,6.6,5.5
2022-09-17 13:00:00 +0000,2022-09-17 07:00:00 -0600,4.9,5.2
2022-09-17 14:00:00 +0000,2022-09-17 08:00:00 -0600,6.9,6
2022-09-17 15:00:00 +0000,2022-09-17 09:00:00 -0600,5.1,5.5
2022-09-17 16:00:00 +0000,2022-09-17 10:00:00 -0600,4.2,4.9
2022-09-17 17:00:00 +0000,2022-09-17 11:00:00 -0600,6.3,5.5
2022-09-17 18:00:00 +0000,2022-09-17 12:00:00 -0600,6.8,6.1
2022-09-17 19:00:00 +0000,2022-09-17 13:00:00 -0600,7.6,6.8
2022-09-17 20:00:00 +0000,2022-09-17 14:00:00 -0600,9.3,8.1
2022-09-17 21:00:00 +0000,2022-09-17 15:00:00 -0600,7.3,7.7
2022-09-17 22:00:00 +0000,2022-09-17 16:00:00 -0600,4.2,5.9
2022-09-17 23:00:00 +0000,2022-09-17 17:00:00 -0600,5.9,5.9
2022-09-18 00:00:00 +0000,2022-09-17 18:00:00 -0600,6.6,6.2
2022-09-18 01:00:00 +0000,2022-09-17 19:00:00 -0600,11.7,8.9
2022-09-18 02:00:00 +0000,2022-09-17 20:00:00 -0600,13.7,11.3
2022-09-18 03:00:00 +0000,2022-09-17 21:00:00 -0600,NA,NA
2022-09-18 04:00:00 +0000,2022-09-17 22:00:00 -0600,1,4.4
2022-09-18 05:00:00 +0000,2022-09-17 23:00:00 -0600,10.1,7.6
2022-09-18 06:00:00 +0000,2022-09-18 00:00:00 -0600,11.8,9.8
2022-09-18 07:00:00 +0000,2022-09-18 01:00:00 -0600,7.8,8.8
2022-09-18 08:00:00 +0000,2022-09-18 02:00:00 -0600,8.6,8.7
2022-09-18 09:00:00 +0000,2022-09-18 03:00:00 -0600,8.1,8.3
2022-09-18 10:00:00 +0000,2022-09-18 04:00:00 -0600,6.8,7.5
2022-09-18 11:00:00 +0000,2022-09-18 05:00:00 -0600,6.9,7.2
2022-09-18 12:00:00 +0000,2022-09-18 06:00:00 -0600,6.1,6.6
2022-09-18 13:00:00 +0000,2022-09-18 07:00:00 -0600,5.4,6
2022-09-18 14:00:00 +0000,2022-09-18 08:00:00 -0600,7.1,6.5
2022-09-18 15:00:00 +0000,2022-09-18 09:00:00 -0600,5.6,6
2022-09-18 16:00:00 +0000,2022-09-18 10:00:00 -0600,5.1,5.5
2022-09-18 17:00:00 +0000,2022-09-18 11:00:00 -0600,7.6,6.5
2022-09-18 18:00:00 +0000,2022-09-18 12:00:00 -0600,4.2,5.3
2022-09-18 19:00:00 +0000,2022-09-18 13:00:00 -0600,0.3,2.8
2022-09-18 20:00:00 +0000,2022-09-18 14:00:00 -0600,0.7,1.7
2022-09-18 21:00:00 +0000,2022-09-18 15:00:00 -0600,3.7,2.7
2022-09-18 22:00:00 +0000,2022-09-18 16:00:00 -0600,5.9,4.3
2022-09-18 23:00:00 +0000,2022-09-18 17:00:00 -0600,8.6,6.4
2022-09-19 00:00:00 +0000,2022-09-18 18:00:00 -0600,5.6,6
2022-09-19 01:00:00 +0000,2022-09-18 19:00:00 -0600,8.3,7.1
2022-09-19 02:00:00 +0000,2022-09-18 20:00:00 -0600,7.3,7.2
2022-09-19 03:00:00 +0000,2022-09-18 21:00:00 -0600,7.1,7.1
2022-09-19 04:00:00 +0000,2022-09-18 22:00:00 -0600,6.9,7
2022-09-19 05:00:00 +0000,2022-09-18 23:00:00 -0600,4.9,5.9
2022-09-19 06:00:00 +0000,2022-09-19 00:00:00 -0600,4.2,5
2022-09-19 07:00:00 +0000,2022-09-19 01:00:00 -0600,10.8,7.9
2022-09-19 08:00:00 +0000,2022-09-19 02:00:00 -0600,7.3,7.6
2022-09-19 09:00:00 +0000,2022-09-19 03:00:00 -0600,35.6,21.6
2022-09-19 10:00:00 +0000,2022-09-19 04:00:00 -0600,5.4,13.5
2022-09-19 11:00:00 +0000,2022-09-19 05:00:00 -0600,7.3,10.4
2022-09-19 12:00:00 +0000,2022-09-19 06:00:00 -0600,6.9,8.6
2022-09-19 13:00:00 +0000,2022-09-19 07:00:00 -0600,5.9,7.2
2022-09-19 14:00:00 +0000,2022-09-19 08:00:00 -0600,5.1,6.1
2022-09-19 15:00:00 +0000,2022-09-19 09:00:00 -0600,NA,NA
